This is the latest recevied weather packets stored in our database for station/object K7FLA. If no packets are shown the sender has not sent any weather packets the latest 10 day(s).
| Time | Temp. | Humidity | Pressure | Rain* | Wind** | Luminosity | Snow |
|---|---|---|---|---|---|---|---|
| 1788620670 | 24.44° C | 31% | 1096 hPa | 0 mm | - | 180 W/m² | - |
| 1788620367 | 23.89° C | 31% | 1096 hPa | 0 mm | - | 165 W/m² | - |
| 1788620062 | 23.89° C | 31% | 1096.1 hPa | 0 mm | - | 151 W/m² | - |
| 1788619761 | 23.33° C | 31% | 1096 hPa | 0 mm | - | 138 W/m² | - |
| 1788619457 | 22.78° C | 32% | 1096 hPa | 0 mm | - | 123 W/m² | - |
| 1788619155 | 22.22° C | 33% | 1096.1 hPa | 0 mm | - | 111 W/m² | - |
| 1788618850 | 21.67° C | 33% | 1095.7 hPa | 0 mm | - | 99 W/m² | - |
| 1788618549 | 20.56° C | 33% | 1095.7 hPa | 0 mm | - | 87 W/m² | - |
| 1788618248 | 20° C | 33% | 1095.9 hPa | 0 mm | - | 77 W/m² | - |
| 1788617944 | 20° C | 34% | 1095.9 hPa | 0 mm | - | 67 W/m² | - |
| 1788617639 | 18.89° C | 31% | 1095.5 hPa | 0 mm | - | 58 W/m² | - |
| 1788617335 | 18.33° C | 30% | 1095.6 hPa | 0 mm | - | 50 W/m² | - |
| 1788617035 | 17.22° C | 31% | 1095.9 hPa | 0 mm | - | 42 W/m² | - |
| 1788616734 | 15.56° C | 33% | 1095.6 hPa | 0 mm | - | 33 W/m² | - |
| 1788616430 | 15° C | 32% | 1096 hPa | 0 mm | - | 28 W/m² | - |
| 1788616125 | 15° C | 31% | 1095.5 hPa | 0 mm | - | 16 W/m² | - |
| 1788615823 | 15° C | 29% | 1095.7 hPa | 0 mm | - | 14 W/m² | - |
| 1788615518 | 15° C | 27% | 1095.7 hPa | 0 mm | - | 11 W/m² | - |
| 1788615214 | 15.56° C | 26% | 1095.7 hPa | 0 mm | - | 8 W/m² | - |
| 1788614912 | 15° C | 25% | 1095.6 hPa | 0 mm | - | 5 W/m² | - |
| 1788614609 | 15° C | 27% | 1095.4 hPa | 0 mm | - | 3 W/m² | - |
| 1788614302 | 15° C | 27% | 1095.3 hPa | 0 mm | - | 1 W/m² | - |
| 1788613999 | 15° C | 28% | 1095.3 hPa | 0 mm | - | 1 W/m² | - |
| 1788613694 | 14.44° C | 29% | 1095.3 hPa | 0 mm | - | 0 W/m² | - |
| 1788613392 | 14.44° C | 29% | 1095.4 hPa | 0 mm | - | 0 W/m² | - |
* Rain latest hour (hover to see other rain measurements)
** Current wind speed in m/s (hover to see current wind gust speed)